This demonstration page uses our WeatherBlox Daily Observations layout. Learn more.

Left ArrowRight Arrow

Hourly Observations for July 4, 2018

Temp ( °F °C ) Dew Point ( °F °C ) Humidity (%) Winds ( mph kmh ) Pressure ( in mb ) Visibility ( mi km ) Precip ( " mm )
12:53 am 00:53 Clear 46 7.8 45 7.2 96 96 SW 10 17 30.06 1018 10 16 0.00 0.00
1:53 am 01:53 Clear 46 7.8 45 7.2 96 96 SW 10 17 30.06 1018 10 16 0.00 0.00
2:53 am 02:53 Cloudy 46 7.8 45 7.2 96 96 W 6 9 30.08 1019 10 16 0.00 0.00
3:53 am 03:53 Clear 44 6.7 43 6.1 96 96 NW 5 7 30.10 1019 10 16 0.00 0.00
4:53 am 04:53 Clear 46 7.8 43 6.1 89 89 SW 12 19 30.10 1019 10 16 0.00 0.00
5:53 am 05:53 Sunny 45 7.2 43 6.1 93 93 WSW 9 15 30.13 1020 10 16 0.00 0.00
6:53 am 06:53 Sunny 48 8.9 45 7.2 89 89 SW 14 22 30.15 1021 10 16 0.00 0.00
7:53 am 07:53 Sunny 52 11.1 46 7.8 80 80 SW 17 28 30.17 1022 10 16 0.00 0.00
8:53 am 08:53 Sunny 57 13.9 48 8.9 72 72 SW 14 22 30.19 1022 10 16 0.00 0.00
9:53 am 09:53 Partly Cloudy 61 16.1 50 10 67 67 SW 13 20 30.20 1023 10 16 0.00 0.00
10:53 am 10:53 Mostly Cloudy 66 18.9 50 10 56 56 W 12 19 30.19 1023 10 16 0.00 0.00
11:53 am 11:53 Mostly Sunny 67 19.4 49 9.4 53 53 WNW 12 19 30.21 1023 10 16 0.00 0.00
12:53 pm 12:53 Mostly Sunny 69 20.6 47 8.3 45 45 W 13 20 30.22 1023 10 16 0.00 0.00
1:53 pm 13:53 Partly Cloudy 71 21.7 46 7.8 41 41 NW 16 26 30.22 1023 10 16 0.00 0.00
2:53 pm 14:53 Partly Cloudy 72 22.2 45 7.2 38 38 NW 15 24 30.24 1024 10 16 0.00 0.00
3:53 pm 15:53 Sunny 73 22.8 43 6.1 34 34 WNW 9 15 30.24 1024 10 16 0.00 0.00
4:53 pm 16:53 Partly Cloudy 76 24.4 43 6.1 31 31 W 12 19 30.25 1024 10 16 0.00 0.00
5:53 pm 17:53 Mostly Sunny 73 22.8 44 6.7 35 35 NNW 13 20 30.25 1025 10 16 0.00 0.00
6:53 pm 18:53 Mostly Sunny 71 21.7 43 6.1 36 36 NNW 6 9 30.27 1025 10 16 0.00 0.00
7:53 pm 19:53 Sunny 71 21.7 44 6.7 38 38 NNE 6 9 30.28 1025 10 16 0.00 0.00
8:53 pm 20:53 Sunny 69 20.6 47 8.3 45 45 NNE 5 7 30.29 1026 10 16 0.00 0.00
9:53 pm 21:53 Clear 62 16.7 49 9.4 62 62 ENE 7 11 30.32 1027 10 16 0.00 0.00
10:53 pm 22:53 Clear 59 15 49 9.4 69 69 E 3 6 30.34 1027 10 16 0.00 0.00
11:53 pm 23:53 Hazy 55 12.8 49 9.4 80 80 ENE 3 6 30.35 1028 6 10 0.00 0.00

Powered by AerisWeather